PROMETHEUS 2-3

Last updated on Thu Nov 21 2024 00:03:39 GMT+0000 (Coordinated Universal Time)

1 41855U 16067H 24325.48450136 .00034143 00000+0 12505-2 0 9999 2 41855 98.0888 151.8305 0007855 254.2858 105.7513 15.27919260439503
UTC large
Height (km)
Speed (km/s)
/
Latitude / Longitude
Inclination (degrees)
Orbital Period (minutes)
Azimuth
Elevation
Range (km)
Doppler Factor

Next 0 passes for location: London (51.5072 / 0.1276)

Sorry there are no passes over London.